Погода в Александровке

Украина / Николаевская область     47°41′43″N   31°16′31″E
темп.,
°C
ветер,
м/с
пор.,
м/с
влажн.,
%
обл.,
%
осадки,
мм/ч
давл.,
гПа
погр.,
м
23 сентября, чт
чт2300:00+8сз3583100 0.3 1015557
03:00+7зсз3589100 0.6 1015323
06:00+7сз3685100 0.3 1015519
09:00+8сз4680100 0.3 1016468
12:00+9сз5571100 0.1 1016932
15:00+10сз466593 0.3 10161189
18:00+10сз577160 0.2 1016590
21:00+9зсз3779100 0.2 1016353
24 сентября, пт
пт2400:00+8зюз2482100 0.0 1016198
03:00+8юз3681100 0.0 1014231
06:00+8ююз41080100 0.0 1012324
09:00+9юз61375100 0.1 1011539
12:00+9юз71477100 1.1 1009614
15:00+10юз71582100 3.2 1008643
18:00+15зюз7126438 0.2 1006611
21:00+10з410785 0.4 1008172
25 сентября, сб
сб2500:00+9з4128170 0.0 1009301
03:00+9зсз512835 0.0 1010404
06:00+8зсз512835 0.0 1011338
09:00+11сз7126961 0.0 1013907
12:00+15сз8104827 0.0 10141818
15:00+18сз8103935 0.0 10151886
18:00+15сз695230 0.0 1017669
21:00+12зюз3471100 0.0 101852
26 сентября, вс
вс2600:00+15зюз51165100 0.0 1018349
03:00+15з51170100 0.0 1018368
06:00+16з51169100 0.0 1018443
09:00+17зсз61164100 0.0 1019719
12:00+19сз7115564 0.0 10191478
15:00+22сз79405 0.0 10181866
18:00+20с58445 0.0 1018313
21:00+14с485689 0.0 1020140
27 сентября, пн
пн2700:00+12св48716 0.0 1021178
03:00+10ссв368114 0.0 1022140
06:00+8ссв368414 0.0 1022119
09:00+11ссв466528 0.0 1023481
12:00+15св454411 0.0 10221245
15:00+17ссв443925 0.0 10221592
18:00+16св464551 0.0 1021237
21:00+11св49585 0.0 1023181